[[{"header":{"parameterUnit":"m.s-1","parameterCategory":1,"la1":30.2991,"la2":30.254,"lo1":-89.0895,"lo2":-89.0444,"dx":0.0017,"dy":0.0017,"nx":28,"ny":28,"refTime":"2022-12-29T09:00:00:Z","depth":0,"parameterNumber":2,"parameterNumberName":"U-component_of_WINDS"},"data":[0,0,0,0,0,0,0,0,0,0,0,0,0,0,0,0,0,0,0,0,0,0,0,0,0,0,0,0,0,0,0,0,0,0,0,0,0,0,0,0,0,0,0,0,0,0,0,0,0,0,0,0,0,0,0,0,0,0,-1.6172,-1.6172,0,-1.6184,-1.6184,-1.6184,-1.6144,-1.6143,-1.6142,-1.6141,-1.6152,-1.6154,-1.6155,0,0,0,0,0,0,0,0,0,0,0,0,0,-1.6116,-1.6117,-1.6172,-1.6172,-1.6172,-1.6184,-1.6184,-1.6184,-1.6144,-1.6143,-1.6142,-1.614,-1.6152,-1.6154,-1.6155,0,0,0,0,0,0,0,0,0,0,0,0,0,-1.6135,-1.6117,-1.6172,-1.6154,-1.6152,-1.6184,-1.6184,-1.6184,-1.6145,-1.6143,-1.6141,-1.614,-1.6151,-1.6153,-1.6156,-1.6204,0,0,-1.6162,-1.6163,0,0,0,0,0,0,0,0,-1.6134,-1.6137,-1.6156,-1.6155,-1.6154,-1.6161,-1.6168,-1.6191,-1.6145,-1.6148,-1.6141,-1.6139,-1.6157,-1.6158,-1.6164,-1.6205,-1.6206,-1.6162,-1.6164,-1.6164,-1.6165,0,0,0,0,0,0,0,-1.6133,-1.6136,-1.6177,-1.6157,-1.6155,-1.6145,-1.6146,-1.6172,-1.6162,-1.6147,-1.6144,-1.6146,-1.6155,-1.6162,-1.6164,-1.6206,-1.6162,-1.6164,-1.6165,-1.6166,-1.6288,-1.629,0,0,0,0,0,0,-1.6134,-1.6136,-1.6176,-1.6177,-1.6139,-1.6148,-1.6149,-1.616,-1.6162,-1.616,-1.6148,-1.6145,-1.616,-1.6162,-1.6165,-1.6222,-1.6164,-1.6166,-1.6168,-1.6286,-1.6288,-1.629,0,0,0,0,0,0,-1.6133,-1.6138,-1.6176,-1.6155,-1.616,-1.6151,-1.6164,-1.6161,-1.6168,-1.6162,-1.616,-1.6157,-1.6158,-1.6162,-1.6195,-1.6222,-1.6167,-1.6169,-1.6284,-1.6287,-1.6289,-1.6338,0,0,0,0,0,0,-1.6131,-1.6138,-1.6156,-1.6156,-1.6161,-1.6206,-1.6166,-1.6163,-1.6172,-1.6168,-1.617,-1.6169,-1.6157,-1.6192,-1.6197,-1.6224,-1.6171,-1.6281,-1.6285,-1.6288,-1.6334,-1.6342,-1.6349,0,0,0,0,0,-1.6129,-1.6169,-1.6157,-1.6162,-1.6184,-1.6208,-1.621,-1.6196,-1.6174,-1.6193,-1.6189,-1.6168,-1.6218,-1.6196,-1.6201,-1.6229,-1.6279,-1.6284,-1.6288,-1.633,-1.634,-1.6349,0,0,0,0,0,0,-1.6172,-1.6169,-1.6155,-1.6196,-1.6203,-1.6201,-1.6224,-1.6208,-1.622,-1.6215,-1.6198,-1.6199,-1.6235,-1.6235,-1.621,-1.6277,-1.6245,-1.6251,-1.6275,-1.6285,-1.6292,-1.6291,-1.6173,0,0,0,0,0,-1.6186,-1.6206,-1.6202,-1.6238,-1.6242,-1.6233,-1.6243,-1.6232,-1.6237,-1.624,-1.6238,-1.6245,-1.6262,-1.6273,-1.6289,-1.6334,-1.6334,-1.6356,-1.6363,-1.637,-1.6375,-1.6399,-1.6409,-1.6305,-1.6305,-1.6305,0,0,-1.6215,-1.6216,-1.623,-1.6247,-1.6251,-1.6272,-1.6235,-1.6259,-1.6274,-1.6243,-1.6275,-1.6274,-1.628,-1.632,-1.6337,-1.6321,-1.6404,-1.6375,-1.638,-1.6382,-1.6404,-1.6414,-1.6423,-1.6308,-1.6307,-1.6307,0,0,-1.628,-1.6282,-1.6313,-1.6318,-1.6324,-1.6317,-1.6325,-1.6326,-1.6324,-1.6356,-1.6333,-1.6351,-1.6381,-1.6386,-1.6393,-1.646,-1.6442,-1.6466,-1.6506,-1.653,-1.6538,-1.6545,-1.6569,-1.6578,-1.6471,-1.6471,-1.6471,0,-1.6315,-1.6346,-1.6331,-1.6356,-1.6365,-1.6338,-1.6369,-1.6374,-1.6385,-1.6392,-1.6374,-1.6411,-1.6413,-1.6454,-1.647,-1.6476,-1.6485,-1.6465,-1.6538,-1.6545,-1.6551,-1.6574,-1.6583,-1.6474,-1.6473,-1.6473,-1.6473,0,-1.639,-1.6412,-1.6436,-1.6447,-1.6459,-1.6487,-1.6476,-1.6489,-1.6478,-1.6473,-1.6506,-1.6508,-1.6523,-1.6532,-1.652,-1.6571,-1.6561,-1.6541,-1.6508,-1.6564,-1.6586,-1.6594,-1.6478,-1.6477,-1.6476,-1.6475,0,0,-1.648,-1.6484,-1.6493,-1.6498,-1.6503,-1.652,-1.6547,-1.6563,-1.6574,-1.6583,-1.6605,-1.6632,-1.6613,-1.6621,-1.661,-1.6631,-1.6684,-1.6608,-1.6608,-1.6622,-1.6741,-1.6756,-1.6767,-1.6672,-1.6674,-1.6675,-1.674,0,-1.6544,-1.6591,-1.6578,-1.6625,-1.6645,-1.662,-1.6644,-1.665,-1.6647,-1.6664,-1.666,-1.6679,-1.6653,-1.6657,-1.6677,-1.6674,-1.6708,-1.6669,-1.6693,-1.6694,-1.6692,-1.6778,-1.6794,-1.6855,-1.6749,-1.675,-1.6751,0,-1.6624,-1.6636,-1.6685,-1.6687,-1.6695,-1.6717,-1.673,-1.6747,-1.6753,-1.6749,-1.6758,-1.6743,-1.677,-1.6738,-1.6775,-1.6749,-1.6758,-1.6758,-1.676,-1.6762,-1.6726,-1.6782,-1.6874,-1.6883,-1.6764,-1.6763,-1.6762,0,-1.6685,-1.6714,-1.6747,-1.6752,-1.6756,-1.6771,-1.6774,-1.6778,-1.6789,-1.68,-1.6807,-1.6822,-1.683,-1.6842,-1.6831,-1.6809,-1.687,-1.6837,-1.6868,-1.6868,-1.6882,-1.6881,-1.6977,-1.6888,-1.6888,-1.6888,-1.6887,0,-1.6757,-1.6788,-1.6775,-1.6795,-1.6829,-1.6815,-1.6849,-1.6848,-1.6853,-1.6872,-1.6852,-1.6871,-1.6856,-1.6874,-1.6866,-1.6898,-1.6902,-1.6899,-1.6897,-1.6901,-1.6902,-1.6907,-1.6902,-1.689,-1.6889,-1.6889,-1.6889,0,-1.6831,-1.6824,-1.6858,-1.6859,-1.686,-1.6885,-1.6886,-1.6905,-1.69,-1.6926,-1.6931,-1.6924,-1.6944,-1.6935,-1.6955,-1.695,-1.6992,-1.6983,-1.699,-1.6987,-1.7019,-1.7016,-1.7122,-1.7135,-1.7037,-1.7038,-1.7039,0,-1.6878,-1.6901,-1.6905,-1.6917,-1.692,-1.694,-1.6951,-1.6938,-1.6949,-1.6959,-1.6977,-1.6995,-1.7009,-1.7042,-1.7039,-1.7055,-1.7047,-1.7083,-1.7049,-1.7053,-1.7048,-1.7046,-1.7049,-1.709,-1.7091,-1.7092,-1.7092,0,-1.6961,-1.6956,-1.6972,-1.6988,-1.7001,-1.7012,-1.7021,-1.7032,-1.702,-1.7034,-1.7055,-1.7066,-1.7087,-1.7106,-1.712,-1.7122,-1.7106,-1.7103,-1.7111,-1.7116,-1.7119,-1.7118,-1.7008,-1.7101,-1.71,-1.7099,-1.7099,-1.7099,-1.7023,-1.7042,-1.7048,-1.7067,-1.7073,-1.7083,-1.7101,-1.7099,-1.7116,-1.7132,-1.7124,-1.7148,-1.7154,-1.7171,-1.7176,-1.7194,-1.718,-1.7192,-1.7194,-1.7198,-1.7202,-1.7116,-1.7197,-1.7197,-1.7196,-1.7196,-1.7196,0,-1.7105,-1.7108,-1.7125,-1.7139,-1.7154,-1.7138,-1.7148,-1.7161,-1.7183,-1.719,-1.7204,-1.7228,-1.7246,-1.7245,-1.7261,-1.7277,-1.7269,-1.7281,-1.728,-1.7281,-1.7214,-1.7205,-1.7287,-1.7287,-1.7287,-1.7287,-1.7287,-1.7287,-1.715,-1.7182,-1.7178,-1.7214,-1.7216,-1.724,-1.7247,-1.7256,-1.7262,-1.7289,-1.7304,-1.7303,-1.7307,-1.7324,-1.734,-1.7339,-1.7346,-1.7361,-1.7358,-1.7295,-1.7286,-1.7277,-1.7269,-1.7363,-1.7363,-1.7423,-1.7424,-1.7424]},{"header":{"parameterUnit":"m.s-1","parameterCategory":1,"la1":30.2991,"la2":30.254,"lo1":-89.0895,"lo2":-89.0444,"dx":0.0017,"dy":0.0017,"nx":28,"ny":28,"refTime":"2022-12-29T09:00:00:Z","depth":0,"parameterNumber":3,"parameterNumberName":"V-component_of_WINDS"},"data":[0,0,0,0,0,0,0,0,0,0,0,0,0,0,0,0,0,0,0,0,0,0,0,0,0,0,0,0,0,0,0,0,0,0,0,0,0,0,0,0,0,0,0,0,0,0,0,0,0,0,0,0,0,0,0,0,0,0,0.8813,0.8812,0,0.8773,0.8772,0.8772,0.8748,0.8748,0.8748,0.8748,0.8703,0.8702,0.8701,0,0,0,0,0,0,0,0,0,0,0,0,0,0.8865,0.8864,0.8813,0.8812,0.8812,0.8773,0.8772,0.8772,0.8748,0.8748,0.8748,0.8748,0.8703,0.8702,0.8701,0,0,0,0,0,0,0,0,0,0,0,0,0,0.8835,0.8864,0.8813,0.8795,0.8793,0.8773,0.8772,0.8772,0.8748,0.8748,0.8748,0.8748,0.8704,0.8702,0.87,0.8693,0,0,0.8695,0.8695,0,0,0,0,0,0,0,0,0.8837,0.8833,0.8798,0.8796,0.8794,0.8765,0.8774,0.8745,0.8748,0.8765,0.8748,0.8748,0.8723,0.872,0.8713,0.8691,0.8689,0.8695,0.8694,0.8693,0.8693,0,0,0,0,0,0,0,0.8839,0.8835,0.8797,0.8798,0.8795,0.8788,0.8784,0.8769,0.8745,0.8764,0.8762,0.8758,0.8722,0.8715,0.8712,0.8689,0.8695,0.8694,0.8693,0.8692,0.8659,0.8659,0,0,0,0,0,0,0.8844,0.8837,0.8798,0.8796,0.8816,0.8787,0.8783,0.8775,0.8746,0.8741,0.8758,0.8757,0.8717,0.8714,0.871,0.87,0.8693,0.8692,0.8691,0.8659,0.8659,0.8659,0,0,0,0,0,0,0.8845,0.8841,0.88,0.8816,0.881,0.8787,0.8778,0.8774,0.8766,0.8741,0.8737,0.8754,0.8717,0.8712,0.8698,0.8698,0.8691,0.869,0.8659,0.8659,0.8659,0.868,0,0,0,0,0,0,0.8847,0.8842,0.8839,0.8816,0.8809,0.879,0.8778,0.8773,0.8764,0.8762,0.8737,0.8732,0.8717,0.8701,0.8696,0.8696,0.8688,0.8659,0.8659,0.8659,0.868,0.8681,0.8683,0,0,0,0,0,0.8849,0.8846,0.884,0.8835,0.8806,0.879,0.8786,0.8769,0.8764,0.8761,0.8745,0.8733,0.8699,0.8699,0.8694,0.8693,0.8659,0.8659,0.8659,0.8679,0.8681,0.8683,0,0,0,0,0,0,0.8869,0.8842,0.8835,0.8825,0.881,0.8786,0.8782,0.8771,0.8756,0.8755,0.8733,0.8728,0.8716,0.8703,0.8704,0.8685,0.8677,0.8677,0.8694,0.8696,0.8697,0.8701,0.8687,0,0,0,0,0,0.8872,0.8862,0.8839,0.8832,0.8825,0.8805,0.8797,0.8785,0.8768,0.8762,0.8744,0.8727,0.8713,0.8703,0.8689,0.8678,0.8672,0.8674,0.8676,0.8678,0.8677,0.8671,0.8672,0.866,0.866,0.866,0,0,0.8878,0.8863,0.8857,0.8836,0.8823,0.8812,0.8799,0.8788,0.878,0.8759,0.8745,0.8732,0.8712,0.8699,0.8693,0.8688,0.8679,0.8678,0.8679,0.8678,0.8671,0.8672,0.8673,0.8661,0.866,0.866,0,0,0.8884,0.8872,0.8865,0.8853,0.8834,0.8821,0.8819,0.8797,0.8788,0.8774,0.8758,0.8747,0.8722,0.8709,0.8698,0.87,0.8689,0.8696,0.8704,0.8698,0.8699,0.87,0.87,0.8701,0.8696,0.8696,0.8696,0,0.8894,0.8879,0.8862,0.8852,0.8843,0.8826,0.8818,0.8806,0.8783,0.8777,0.8772,0.8742,0.8726,0.8711,0.8712,0.8704,0.8701,0.8699,0.87,0.8701,0.8701,0.8702,0.8702,0.8697,0.8697,0.8696,0.8696,0,0.8892,0.8881,0.8877,0.8858,0.8848,0.8839,0.882,0.8812,0.8802,0.8788,0.8774,0.8756,0.8737,0.8732,0.8721,0.8715,0.8713,0.8705,0.8697,0.8704,0.8704,0.8704,0.8698,0.8698,0.8697,0.8697,0,0,0.8909,0.8881,0.888,0.8871,0.8849,0.884,0.883,0.8814,0.8807,0.8791,0.8782,0.8762,0.8755,0.8744,0.873,0.8725,0.8728,0.8717,0.8717,0.872,0.8721,0.8727,0.8728,0.8721,0.8721,0.872,0.8723,0,0.8912,0.8895,0.8881,0.8869,0.8859,0.8842,0.8834,0.8819,0.8807,0.8795,0.8781,0.8767,0.8758,0.8751,0.8745,0.8729,0.8728,0.8729,0.8711,0.8711,0.8717,0.8728,0.8735,0.8737,0.8722,0.8722,0.8722,0,0.8913,0.8901,0.8888,0.8869,0.8864,0.8857,0.8841,0.883,0.8813,0.8804,0.8792,0.8779,0.8767,0.876,0.8743,0.8744,0.8736,0.8727,0.8726,0.8724,0.8717,0.8726,0.8738,0.8739,0.8722,0.8722,0.8722,0,0.8927,0.8907,0.8897,0.889,0.8866,0.8862,0.8851,0.8834,0.8826,0.8811,0.8805,0.8788,0.8779,0.8767,0.8749,0.8746,0.8734,0.8725,0.8726,0.8726,0.8724,0.8724,0.8735,0.8718,0.8718,0.8718,0.8718,0,0.8933,0.8926,0.8903,0.8897,0.8889,0.8872,0.8864,0.8852,0.8837,0.8828,0.8812,0.8803,0.878,0.8769,0.8755,0.8743,0.8738,0.8731,0.8727,0.8732,0.8733,0.8726,0.8726,0.8718,0.8718,0.8718,0.8718,0,0.8947,0.8932,0.892,0.8899,0.8894,0.8889,0.8871,0.8864,0.8851,0.8839,0.8835,0.8814,0.88,0.8781,0.876,0.8751,0.8741,0.8735,0.8747,0.8745,0.8746,0.8747,0.8753,0.8753,0.8737,0.8737,0.8737,0,0.8951,0.8946,0.8925,0.8919,0.891,0.8899,0.8891,0.8873,0.8864,0.8845,0.884,0.8825,0.8812,0.8789,0.8771,0.8755,0.8749,0.8752,0.8746,0.8752,0.8749,0.875,0.8749,0.8754,0.8754,0.8754,0.8755,0,0.8961,0.8954,0.8943,0.893,0.892,0.8908,0.8896,0.8891,0.8871,0.8862,0.8848,0.8838,0.8817,0.8802,0.8784,0.8772,0.876,0.8757,0.8756,0.8761,0.8769,0.8765,0.8751,0.8757,0.8756,0.8756,0.8756,0.8756,0.8971,0.8965,0.8951,0.8939,0.8928,0.8917,0.891,0.8896,0.8885,0.8868,0.8858,0.8844,0.8827,0.8802,0.879,0.8779,0.8774,0.8773,0.8772,0.8772,0.8774,0.8771,0.8775,0.8775,0.8775,0.8775,0.8775,0,0.898,0.897,0.8959,0.8943,0.8934,0.8925,0.891,0.8903,0.8892,0.8877,0.8865,0.8849,0.8835,0.8816,0.88,0.8794,0.8788,0.879,0.8791,0.8788,0.8779,0.8782,0.8796,0.8796,0.8796,0.8796,0.8796,0.8796,0.8983,0.8975,0.8966,0.8951,0.894,0.8928,0.8921,0.891,0.8899,0.8882,0.8871,0.8859,0.8843,0.8826,0.8812,0.8807,0.8801,0.8805,0.8799,0.8791,0.8789,0.8787,0.8789,0.8804,0.8804,0.8808,0.8808,0.8809]}]]